Location: Anciles
(42.5833°N, 0.5167°E)
Time: 02:48:18
(UTC+00:00)

SL-16 R/B - Pass Details

Date: 10 December 2019
Orbit: 840 x 849 km, 71.0° (Epoch: 25 January)

Event Time Altitude Azimuth Distance (km) Brightness Sun altitude
Rises 17:18:44 0° 174° (S) 3,388 5.6 -9.8°
Reaches altitude 10° 17:21:25 10° 164° (SSE) 2,460 4.7 -10.2°
Maximum altitude 17:26:19 31° 104° (ESE) 1,441 3.0 -11.0°
Enters shadow 17:30:31 13° 48° (NE) 2,250 3.8 -11.8°
